Tracking 20628 objects as of 5-Apr-2020
HD Live streaming from Space Station
objects crossing your sky now

DMSP 5D-2 F11 DEB

Track DMSP 5D-2 F11 DEB now!
10-day predictions


NORAD ID: 28318
Int'l Code: 1991-082AF
Perigee: 739.1 km
Apogee: 822.5 km
Inclination: 98.8 °
Period: 100.3 minutes
Semi major axis: 7151 km
RCS: 0.0172 m2 (small)
Launch date: November 28, 1991
Source: United States (US)
Launch site: AIR FORCE WESTERN TEST RANGE (AFWTR)

Note: This is SATELLITE DEBRIS
aabbcc
Your satellite tracking list
Your tracking list is empty




NASA's NSSDC Master Catalog

Two Line Element Set (TLE):
1 28318U 91082AF  20095.71529922 +.00001667 +00000-0 +58468-3 0  9999
2 28318 098.7688 158.2446 0058316 158.1644 328.2146 14.35430649826159
Source of the keplerian elements: AFSPC